www.pogodaiklimat.ru

Погода и климат >> Архив погоды >> Таиланд >> Лопбури


ПОГОДА в Лопбури

  • Прогноз погоды в Лопбури
  • Монитор погоды в Лопбури

АРХИВ ПОГОДЫ в Лопбури

Время (UTC), дата Ветер
(напр.,м/с)
 
Видим.   Явления Облачность Т
(С)
Тd
(С)
f
(%)
Тe
(С)
Тes
(С)
Комфортность P
(гПа)
Po
(гПа)
Тmin
(С)
Tmax
(С)
R
(мм)
R24
(мм)
S
(см)
03 20.06 Ю 2 10 км 4/3 600 м
[Cu hum Ac lent Ci fib]
+32.4 +23.6 60 +44 +54 опасность
перегрева
1008.7 1006.9
06 20.06 Ю 2 10 км 6/5 600 м
[Cu med, cong Ac lent Cs]
+35.1 +23.5 51 +46 +55 опасность
перегрева
1007.4 1005.6
09 20.06 Ю 2 10 км 5/3 600 м
[Cu med, cong Ac lent Ci fib]
+35.9 +23.6 49 +47 +51 опасность
перегрева
1005.5 1003.7
12 20.06 Ю 2 10 км 5/3 600 м
[Cu med, cong Ac lent Cs]
+32.7 +24.1 61 +45 +45 опасность
перегрева
1005.4 1003.6 +36.5
15 20.06 Ю 2 9000 м дымка 3/1 600 м
[Cu med, cong Ac lent Cs]
+30.7 +25.0 72 +44 +44 опасность
перегрева
1007.3 1005.5
18 20.06 штиль 0 8000 м дымка 3/1 600 м
[Sc Ac lent Cs]
+29.0 +25.2 80 +42 +42 опасность
перегрева
1007.0 1005.2
21 20.06 штиль 0 8000 м дымка 3/1 600 м
[Sc Ac lent Cs]
+27.8 +25.4 87 +41 +41 опасность
перегрева
1006.3 1004.5
00 21.06 Ю 2 9000 м дымка 4/1 600 м
[Cu hum Ac lent Ci fib]
+28.0 +24.8 83 +40 +41 очень
душно
1007.8 1006.0 +27.0
03 21.06 ЮЗ 2 10 км 3/1 600 м
[Cu hum Ac lent Ci fib]
+34.0 +23.7 55 +45 +58 опасность
перегрева
1008.3 1006.5
06 21.06 ЮЗ 2 10 км 3/3 600 м
[Cu med, cong Ac lent Ci fib]
+35.5 +22.8 48 +45 +60 опасность
перегрева
1006.5 1004.7
09 21.06 Ю 2 10 км 3/3 600 м
[Cu med, cong Ac lent Ci fib]
+36.8 +22.5 44 +46 +52 опасность
перегрева
1004.3 1002.5
12 21.06 штиль 0 10 км 5/3 600 м
[Cu med, cong Ac lent Cs]
+34.3 +22.6 51 +44 +44 опасность
перегрева
1004.0 1002.3 +37.2
15 21.06 штиль 0 9000 м дымка 3/1 600 м
[Sc Ac lent Cs]
+31.9 +25.7 70 +47 +47 опасность
перегрева
1006.0 1004.2
18 21.06 штиль 0 8000 м дымка 3/1 600 м
[Sc Ac lent Cs]
+30.0 +25.8 78 +45 +45 опасность
перегрева
1005.6 1003.8
21 21.06 штиль 0 8000 м дымка 6/1 600 м
[Sc Ac lent Cs]
+28.6 +26.2 87 +43 +43 опасность
перегрева
1005.3 1003.5
00 22.06 ЮЗ 2 9000 м дымка 8/1 600 м
[Cu hum Ac trans Cs]
+29.5 +24.9 76 +42 +43 опасность
перегрева
1005.7 1003.9 +28.1
03 22.06 З 4 12 км 3/3 600 м
[Cu med, cong Ci fib]
+34.8 +25.4 58 +49 +56 опасность
перегрева
1006.4 1004.6
06 22.06 штиль 0 12 км 4/3 600 м
[Cu med, cong Ci fib]
+38.1 +24.5 46 +50 +69 опасность
перегрева
1004.7 1002.9
09 22.06 З 7 10 км 6/4 600 м
[Cu Sc As op Cs]
+37.5 +23.9 46 +49 +50 опасность
перегрева
1002.2 1000.5
12 22.06 штиль 0 10 км 8/3 600 м
[Cu med, cong Ac lent Cs]
+34.0 +24.5 58 +47 +47 опасность
перегрева
1002.5 1000.7 +38.5
15 22.06 штиль 0 8000 м дымка 4/3 600 м
[Cu med, cong Ac lent Cs]
+31.8 +25.8 71 +47 +47 опасность
перегрева
1004.4 1002.6
18 22.06 штиль 0 7000 м дымка 3/3 600 м
[Cu hum Cs]
+30.0 +26.1 80 +45 +45 опасность
перегрева
1004.4 1002.6
21 22.06 ЮВ 3 7000 м дымка 3/0
[Cs]
+29.0 +26.6 87 +45 +45 опасность
перегрева
1003.8 1002.0
00 23.06 ЮВ 5 8000 м дымка 8/1 600 м
[Cu hum As trans Cs]
+28.7 +26.0 85 +43 +44 опасность
перегрева
1004.8 1003.0 +28.5
03 23.06 Ю 3 9000 м дымка 6/1 600 м
[Cu hum Ac lent Cs]
+33.6 +26.1 65 +50 +58 опасность
перегрева
1004.7 1003.0
06 23.06 З 2 12 км 8/4 600 м
[Cu med, cong Ac lent Cs]
+36.9 +25.0 51 +50 +59 опасность
перегрева
1004.0 1002.2
09 23.06 Ю 4 9000 м мгла 8/4 600 м
[Cu med, cong Ac lent Cs]
+35.0 +25.2 57 +49 +51 опасность
перегрева
1002.0 1000.2
12 23.06 ЮВ 6 8000 м дымка 8/4 600 м
[Sc Ac lent Cs]
+31.1 +25.3 71 +45 +45 опасность
перегрева
1003.0 1001.3 +38.3
15 23.06 ЮВ 4 8000 м дымка 4/3 600 м
[Sc Ac lent Cs]
+28.9 +24.1 75 +40 +40 очень
душно
1005.8 1004.0
18 23.06 Ю 3 7000 м дымка 4/0
[Cs]
+28.4 +25.0 82 +41 +41 опасность
перегрева
1006.4 1004.6
21 23.06 Ю 6 7000 м дымка 8/3 600 м
[Sc Ac und Cs]
+28.4 +25.0 82 +41 +41 опасность
перегрева
1005.3 1003.5
00 24.06 Ю 2 7000 м дымка 9/3 600 м
[Sc Ac und Cs]
+28.2 +25.2 84 +41 +42 опасность
перегрева
1006.6 1004.7 +27.8
03 24.06 Ю 5 8000 м дымка 8/3 600 м
[Sc Ac und Cs]
+30.7 +25.5 74 +45 +49 опасность
перегрева
1008.0 1006.2
06 24.06 Ю 3 9000 м мгла 8/3 600 м
[Sc Ac und Cs]
+34.1 +23.0 52 +44 +52 опасность
перегрева
1006.3 1004.5
09 24.06 Ю 6 9000 м мгла 9/5 600 м
[Cu Sc Ac und Cs]
+34.9 +24.1 54 +47 +48 опасность
перегрева
1004.3 1002.6
12 24.06 З 2 8000 м дымка 10/3 600 м
[Cb cap Ac As Cs]
+30.6 +25.5 74 +45 +45 опасность
перегрева
1005.9 1004.1 +35.1
15 24.06 СВ 2 8000 м дымка {гроза} 10/3 600 м
[Cb cap Ac As Cs]
+26.1 +25.2 95 +38 +38 очень
душно
1007.7 1005.9 46
18 24.06 ЮВ 2 7000 м дымка {гроза} 8/3 600 м
[Sc Ac lent Cs]
+26.0 +24.7 93 +37 +37 очень
душно
1007.5 1005.6 46
21 24.06 штиль 0 7000 м дымка 8/3 600 м
[Sc Ac und Cs]
+25.9 +24.7 93 +37 +37 очень
душно
1007.1 1005.3
00 25.06 В 2 7000 м дымка 9/4 600 м
[Sc Ac und Cs]
+26.5 +24.9 91 +38 +38 очень
душно
1008.2 1006.4 +25.6
03 25.06 ЮЗ 3 12 км 8/3 600 м
[Cu med, cong Ac lent Cs]
+31.2 +25.3 71 +45 +51 опасность
перегрева
1009.2 1007.4
06 25.06 Ю 5 12 км 9/6 600 м
[Cu Sc As op Cs]
+33.5 +25.5 63 +48 +51 опасность
перегрева
1007.5 1005.7
09 25.06 Ю 7 12 км 6/5 600 м
[Cu Sc Ac lent Cs]
+34.7 +24.0 54 +46 +47 опасность
перегрева
1005.3 1003.6
12 25.06 ЮЗ 5 9000 м зарница 9/6 600 м
[Cb cap Ac As Cs]
+32.5 +25.3 66 +47 +47 опасность
перегрева
1006.5 1004.7 +35.5
15 25.06 штиль 0 9000 м дымка {гроза, дождь} 4/3 600 м
[Cu hum Ac lent Ci fib]
+27.0 +24.8 88 +39 +39 очень
душно
1009.3 1007.5 1
18 25.06 штиль 0 8000 м дымка {гроза, дождь} 6/3 600 м
[Cu hum Ac lent Cs]
+27.5 +24.0 81 +38 +38 очень
душно
1008.2 1006.3 1
21 25.06 штиль 0 8000 м дымка 3/3 600 м
[Cu hum Cs]
+26.2 +24.6 91 +37 +37 очень
душно
1007.0 1005.2
00 26.06 ЮВ 2 8000 м дымка 8/1 600 м
[Cu hum Ac lent Cs]
+27.0 +24.8 88 +39 +39 очень
душно
1008.1 1006.2 +25.9
03 26.06 Ю 2 9000 м мгла 8/3 600 м
[Cu med, cong Ac lent Cs]
+32.0 +24.1 63 +44 +51 опасность
перегрева
1008.5 1006.7
06 26.06 Ю 2 10 км 9/6 600 м
[Cu med, cong Ac und Cs]
+34.0 +24.2 57 +46 +52 опасность
перегрева
1007.0 1005.3
09 26.06 Ю 2 10 км 8/5 600 м
[Cu med, cong Ac und Cs]
+34.4 +24.3 56 +47 +50 опасность
перегрева
1004.2 1002.4
12 26.06 Ю 4 10 км дымка {дождь} 9/5 600 м
[Cb cap Ac und Cs]
+28.8 +24.0 75 +40 +40 очень
душно
1005.7 1003.9 +35.0 0.2
15 26.06 Ю 2 9000 м дымка 8/3 600 м
[Sc Ac und Cs]
+27.0 +24.4 86 +38 +38 очень
душно
1007.6 1005.7
18 26.06 Ю 2 8000 м дымка 6/3 600 м
[Sc Ac lent Cs]
+26.6 +24.6 89 +38 +38 очень
душно
1006.9 1005.0
21 26.06 Ю 2 8000 м дымка 8/3 600 м
[Sc Ac lent Cs]
+26.8 +25.1 90 +39 +39 очень
душно
1005.3 1003.5

 

Местоположение метеостанции Лопбури (Таиланд): широта 14.80 долгота 100.61 высота над уровнем моря 11 м.

В архиве по умолчанию представлена погода в Лопбури за последнюю неделю. Архивные данные за месяц целиком и за предыдущие месяцы, начиная с января 2011 года, Вы можете получить, выбрав интересующий диапазон дат из раскрывающегося списка и нажав кнопку "Ввод!".


*Определитесь, кто Вы:
робот инопланетянин человек

Внимание! Время в таблицах - всемирное. Для получения местного времени необходимо прибавить поправку, которая равна 7 ч.

Смотрите также архив погоды в соседних городах и на ближайших метеорологических станциях:

Погода в Аюттхая (Таиланд) (33 км)
Погода в Лаем-Чабанге (Таиланд) (43 км)
Погода в Сарабури (Таиланд) (46 км)
Погода в Чайнат Агромете (Таиланд) (60 км)
Погода в Такфа Агромете (Таиланд) (62 км)
Погода в Суфанбури (Таиланд) (63 км)
Погода в Патхумтхани (Таиланд) (78 км)
Погода в Пакчонг Агромете (Таиланд) (79 км)
Погода в Буа Чум (Таиланд) (81 км)
Погода в Утай Тани (Таиланд) (89 км)

Пояснения к столбцам:

Ветер - указаны скорость ветра в м/с - средняя за 10 мин, порывы в срок и между сроками (в фигурных скобках) и направление, откуда дует ветер: С - северный, СВ - северо-восточный, В - восточный, ЮВ - юго-восточный, Ю - южный, ЮЗ - юго-западный, З - западный, СЗ - северо-западный.
Видимость - горизонтальная дальность видимости в метрах или километрах. При видимости от 1 до 10 км при отсутствии осадков обычно наблюдается дымка, при ухудшении видимости до 1 км и менее - туман. В сухую погоду видимость может ухудшаться дымом, пылью или мглою.
Явления - указаны атмосферные явления, наблюдавшиеся в срок или в последний час перед сроком; фигурными скобками обозначены явления, наблюдавшиеся между сроками (за 1-3 часа до срока); квадратными скобками обозначены град или гололедные отложения с указанием их диаметра в мм.
Облачность - указаны через наклонную черту общая и нижняя облачность в баллах и высота нижней границы облаков в метрах; квадратными скобками обозначены формы облаков: Ci - перистые, Cs - перисто-слоистые, Cc - перисто-кучевые, Ac - высококучевые, As - высокослоистые, Sc - слоисто-кучевые, Ns - слоисто-дождевые, Cu - кучевые, Cb - кучево-дождевые. Подробнее классификацию облаков см. в Атласе облаков (PDF).
T - Температура воздуха - температура, измеренная на высоте 2 м над землей.
Td - Температура точки росы - температура, при понижении до которой содержащийся в воздухе водяной пар достигнет насыщения.
f - Относительная влажность воздуха - влажноcть воздуха, измеренная на высоте 2 м над землей.
Te - Эффективная температура - температура, которую ощущает одетый по сезону человек в тени. Характеристика душности погоды. При расчете учитывается влияние влажности воздуха и скорости ветра на теплоощущения человека.
Tes - Эффективная температура на солнце - температура, которую ощущает человек, с поправкой на солнечный нагрев. Характеристика знойности погоды. Зависит от высоты солнца над горизонтом, облачности и скорости ветра. Ночью, в пасмурную погоду, а также при ветре 12 м/с и более поправка равна нулю.
P - Атмосферное давление - приведенное к уровню моря атмосферное давление.
Po - Атмосферное давление - измеренное на уровне метеостанции атмосферное давление.
Tmin - Минимальная температура - минимум температуры воздуха на высоте 2 м над землей.
Tmax - Максимальная температура - максимум температуры воздуха на высоте 2 м над землей.
R - Количество осадков - Количество выпавших осадков за период времени, мм. При наведении курсора мыши на число - период времени, за который выпало указанное количество осадков.
R24 - Количество осадков - Количество выпавших осадков за 24 часа, мм.
S - Снежный покров - Высота снежного покрова, см. При наведении курсора мыши на число - состояние снежного покрова и степень покрытия местности в баллах.